User: anonymous   Login
Location: Buisson
(44.2787°N, 4.9969°E)
Time: 20:45:18
(UTC+00:00)
Language:

DELTA 2 R/B (1) - Orbit

View from above orbital plane
View from above orbital plane
View from above satellite
View from above satellite

Ground track
Ground track

The orbit data is extracted from the following two-line orbital elements,

1 27665U 03005C   21172.49336454 -.00000101  00000-0 -61849-5 0  9992
2 27665  39.5740 208.5365 0008430  71.7911  70.8089 14.28556158960514
Epoch (UTC): 21 June 2021 11:50:26
Eccentricity: 0.0008430
inclination: 39.5740°
perigee height: 790 km
apogee height: 802 km
right ascension of ascending node: 208.5365°
argument of perigee: 71.7911°
revolutions per day: 14.28556158
mean anomaly at epoch: 70.8089°
orbit number at epoch: 96051

The dashed part of the orbit path shows where the satellite is in the earth's shadow,  

DLR